GW1106 Weather Reports


time (UTC)temp
F
wind
direction
speed
knots
gust
knots
rain 1hr
in
rain 24hr
in
rain mn
in
humidity
%
barometer
mb
20260505051810 50 128 0.0 0.0 0.00 0.00 0.00 83 1016.7
20260505051308 50 135 0.0 0.0 0.00 0.00 0.00 82 1016.6
20260505050806 51 135 0.0 0.0 0.00 0.00 0.00 81 1016.7
20260505050305 51 149 0.0 0.0 0.00 0.00 0.00 79 1016.7
20260505041734 51 131 0.0 0.0 0.00 0.00 0.00 80 1016.7
20260505041231 51 131 0.0 0.0 0.00 0.00 0.00 79 1016.6
20260505040728 51 131 0.0 0.0 0.00 0.00 0.00 79 1016.7
20260505040226 52 131 0.0 0.0 0.00 0.00 0.00 77 1016.7
20260505035723 53 127 0.0 0.0 0.00 0.00 0.00 76 1016.8
20260505035218 53 127 0.0 0.0 0.00 0.00 0.00 75 1016.7
20260505034715 53 126 0.0 0.0 0.00 0.00 0.00 74 1016.8
20260505034212 54 120 0.0 0.0 0.00 0.00 0.00 74 1016.8
20260505033708 54 119 0.0 0.0 0.00 0.00 0.00 73 1017.0
20260505033207 53 102 0.0 0.9 0.00 0.00 0.00 78 1016.8
20260505032704 59 314 0.0 0.0 0.00 0.00 0.00 66 1016.8
20260505032200 59 155 0.9 0.9 0.00 0.00 0.00 61 1016.9
20260505031658 60 160 0.0 1.7 0.00 0.00 0.00 61 1016.9
20260505031154 57 169 0.9 1.7 0.00 0.00 0.00 65 1016.8
20260505030651 55 145 0.0 0.0 0.00 0.00 0.00 71 1016.7
20260505030146 55 137 0.0 0.0 0.00 0.00 0.00 70 1016.8
20260505025643 55 144 0.0 0.9 0.00 0.00 0.00 70 1016.8
20260505025142 56 110 0.0 0.0 0.00 0.00 0.00 70 1016.8
20260505024639 57 135 0.0 0.0 0.00 0.00 0.00 69 1016.8
20260505024136 57 142 0.0 0.0 0.00 0.00 0.00 67 1016.7
20260505023633 56 143 0.0 0.0 0.00 0.00 0.00 69 1016.8
20260505023131 57 127 0.0 0.0 0.00 0.00 0.00 69 1016.5
20260505022628 57 134 0.0 0.0 0.00 0.00 0.00 68 1016.7
20260505022125 58 134 0.0 0.0 0.00 0.00 0.00 67 1016.7
20260505021621 58 139 0.0 0.0 0.00 0.00 0.00 66 1016.7
20260505021118 59 137 0.0 0.0 0.00 0.00 0.00 64 1016.6
20260505020613 59 142 0.0 0.0 0.00 0.00 0.00 64 1016.7
20260505020110 60 144 0.0 0.0 0.00 0.00 0.00 61 1016.3
20260505015607 61 135 0.0 0.0 0.00 0.00 0.00 60 1016.4
20260505015104 62 127 0.9 0.9 0.00 0.00 0.00 57 1016.4
20260505014600 63 135 0.0 0.0 0.00 0.00 0.00 54 1016.4
20260505014058 64 131 0.0 0.0 0.00 0.00 0.00 53 1016.2
20260505013555 65 144 0.0 0.0 0.00 0.00 0.00 50 1016.3
20260505013052 67 180 0.9 0.9 0.00 0.00 0.00 48 1016.2
20260505012550 67 219 1.7 2.6 0.00 0.00 0.00 47 1016.2
20260505012047 67 207 1.7 1.7 0.00 0.00 0.00 47 1016.1
20260505011542 67 209 1.7 2.6 0.00 0.00 0.00 47 1016.2
20260505011040 68 235 3.5 3.5 0.00 0.00 0.00 46 1016.1
20260505010535 68 213 2.6 3.5 0.00 0.00 0.00 46 1016.0
20260505010032 68 228 2.6 3.5 0.00 0.00 0.00 46 1016.0
20260505005528 68 195 1.7 3.5 0.00 0.00 0.00 46 1016.0
20260505005026 68 179 1.7 2.6 0.00 0.00 0.00 46 1016.0
20260505004523 68 169 1.7 2.6 0.00 0.00 0.00 46 1015.6
20260505004019 67 169 0.9 1.7 0.00 0.00 0.00 46 1015.6
20260505003517 68 157 0.0 0.9 0.00 0.00 0.00 46 1015.7
20260505003014 68 172 0.0 1.7 0.00 0.00 0.00 45 1015.7
20260505002509 69 211 0.9 2.6 0.00 0.00 0.00 44 1015.5
20260505002008 69 157 0.0 2.6 0.00 0.00 0.00 44 1015.6
20260505001505 69 165 0.0 1.7 0.00 0.00 0.00 43 1015.6
20260505001002 69 165 0.0 0.9 0.00 0.00 0.00 43 1015.6
20260505000500 70 189 0.0 1.7 0.00 0.00 0.00 43 1015.5
20260504235956 71 149 0.9 0.9 0.00 0.00 0.00 42 1015.2
20260504235453 71 162 0.9 2.6 0.00 0.00 0.00 41 1015.6
20260504234950 71 199 1.7 2.6 0.00 0.00 0.00 40 1015.2
20260504234447 72 187 1.7 3.5 0.00 0.00 0.00 41 1015.2
20260504233943 72 221 1.7 2.6 0.00 0.00 0.00 39 1015.2
20260504233439 72 209 4.3 5.2 0.00 0.00 0.00 39 1015.0
20260504232937 72 193 0.9 2.6 0.00 0.00 0.00 40 1015.1
20260504232434 72 189 1.7 3.5 0.00 0.00 0.00 39 1015.1
20260504231931 73 208 2.6 6.1 0.00 0.00 0.00 39 1015.1
20260504231427 73 232 5.2 6.1 0.00 0.00 0.00 38 1015.0
20260504230923 73 215 2.6 6.1 0.00 0.00 0.00 37 1015.2
20260504230420 74 218 1.7 5.2 0.00 0.00 0.00 37 1015.0
20260504225919 74 217 3.5 5.2 0.00 0.00 0.00 37 1015.0
20260504225416 74 230 2.6 6.1 0.00 0.00 0.00 36 1014.9
20260504224913 74 184 3.5 8.7 0.00 0.00 0.00 36 1014.9
20260504224409 75 230 4.3 5.2 0.00 0.00 0.00 37 1014.9
20260504223907 75 206 6.1 7.0 0.00 0.00 0.00 34 1015.2
20260504223402 75 250 7.8 9.6 0.00 0.00 0.00 35 1015.1
20260504222858 75 232 1.7 3.5 0.00 0.00 0.00 36 1015.1
20260504222355 75 226 5.2 7.0 0.00 0.00 0.00 34 1015.1
20260504221854 75 212 2.6 7.8 0.00 0.00 0.00 34 1015.0
20260504221350 75 214 2.6 7.0 0.00 0.00 0.00 36 1015.1
20260504220847 75 187 2.6 5.2 0.00 0.00 0.00 35 1015.2
20260504220344 75 223 2.6 6.1 0.00 0.00 0.00 34 1014.9
20260504215841 75 216 1.7 9.6 0.00 0.00 0.00 34 1015.0
20260504215337 75 219 1.7 5.2 0.00 0.00 0.00 35 1014.9
20260504214834 75 220 4.3 8.7 0.00 0.00 0.00 35 1015.2
20260504214331 75 220 4.3 5.2 0.00 0.00 0.00 36 1014.9
20260504213827 75 249 5.2 8.7 0.00 0.00 0.00 35 1015.0
20260504213323 75 244 4.3 5.2 0.00 0.00 0.00 35 1014.9
20260504212821 76 195 6.1 8.7 0.00 0.00 0.00 34 1015.1
20260504212317 76 179 4.3 8.7 0.00 0.00 0.00 35 1015.1
20260504211815 76 224 3.5 7.8 0.00 0.00 0.00 36 1015.2
20260504211310 76 232 2.6 7.0 0.00 0.00 0.00 36 1015.1
20260504210808 77 228 5.2 7.8 0.00 0.00 0.00 35 1015.1
20260504210305 78 236 1.7 3.5 0.00 0.00 0.00 33 1015.0
20260504205803 77 264 8.7 9.6 0.00 0.00 0.00 35 1015.1
20260504205300 76 176 3.5 7.0 0.00 0.00 0.00 34 1015.2
20260504204758 77 198 6.1 7.8 0.00 0.00 0.00 33 1015.0
20260504204251 78 241 5.2 8.7 0.00 0.00 0.00 33 1015.2
20260504203750 77 256 7.0 11.3 0.00 0.00 0.00 33 1015.2
20260504203246 78 191 3.5 3.5 0.00 0.00 0.00 32 1015.2
20260504202746 78 192 3.5 7.0 0.00 0.00 0.00 33 1015.3
20260504202244 77 184 5.2 9.6 0.00 0.00 0.00 32 1015.6
20260504201741 78 163 5.2 8.7 0.00 0.00 0.00 34 1015.6
20260504201238 77 172 3.5 7.8 0.00 0.00 0.00 33 1015.5
20260504200736 77 197 5.2 7.8 0.00 0.00 0.00 34 1015.5
20260504200231 77 223 2.6 7.0 0.00 0.00 0.00 36 1015.8
20260504195728 77 241 3.5 7.0 0.00 0.00 0.00 35 1015.7
20260504195224 77 270 1.7 5.2 0.00 0.00 0.00 35 1015.7
20260504194721 79 217 7.0 7.0 0.00 0.00 0.00 31 1015.9
20260504194217 77 182 2.6 2.6 0.00 0.00 0.00 33 1015.9
20260504193714 76 197 6.1 8.7 0.00 0.00 0.00 32 1016.1
20260504193212 77 233 4.3 7.0 0.00 0.00 0.00 33 1016.0
20260504192710 78 175 2.6 5.2 0.00 0.00 0.00 32 1016.1
20260504192208 76 199 1.7 3.5 0.00 0.00 0.00 33 1016.2
20260504191706 76 143 4.3 7.0 0.00 0.00 0.00 35 1016.4
20260504191202 76 171 4.3 7.8 0.00 0.00 0.00 33 1016.4
20260504190657 76 99 1.7 3.5 0.00 0.00 0.00 33 1016.3
20260504190154 76 216 3.5 8.7 0.00 0.00 0.00 33 1016.4
20260504185651 76 197 3.5 6.1 0.00 0.00 0.00 32 1016.5
20260504185148 76 162 1.7 3.5 0.00 0.00 0.00 33 1016.5
20260504184644 75 223 3.5 7.0 0.00 0.00 0.00 34 1016.5
20260504184138 75 215 7.0 7.8 0.00 0.00 0.00 34 1016.5
20260504183636 75 295 5.2 7.0 0.00 0.00 0.00 34 1016.6
20260504183133 76 162 5.2 7.0 0.00 0.00 0.00 34 1016.7
20260504182631 75 247 1.7 7.0 0.00 0.00 0.00 36 1016.8
20260504182128 75 167 2.6 7.0 0.00 0.00 0.00 37 1016.8
20260504181626 74 176 0.0 2.6 0.00 0.00 0.00 33 1016.9
20260504181123 75 112 1.7 5.2 0.00 0.00 0.00 34 1017.0
20260504180622 74 218 3.5 7.0 0.00 0.00 0.00 36 1016.9
20260504180121 74 236 4.3 7.0 0.00 0.00 0.00 34 1016.9
20260504175617 75 157 2.6 5.2 0.00 0.00 0.00 31 1017.1
20260504175114 74 199 1.7 1.7 0.00 0.00 0.00 33 1017.0
20260504174612 75 212 1.7 7.0 0.00 0.00 0.00 33 1017.1
20260504174108 76 107 0.9 1.7 0.00 0.00 0.00 34 1017.1
20260504173605 74 162 0.0 0.9 0.00 0.00 0.00 31 1017.2
20260504173103 73 150 3.5 5.2 0.00 0.00 0.00 32 1017.4
20260504172559 74 198 2.6 7.8 0.00 0.00 0.00 33 1017.2
20260504172056 73 33 2.6 3.5 0.00 0.00 0.00 31 1017.3
20260504171552 73 325 1.7 3.5 0.00 0.00 0.00 33 1017.3
20260504171049 74 110 1.7 1.7 0.00 0.00 0.00 32 1017.4
20260504170545 74 66 0.9 1.7 0.00 0.00 0.00 32 1017.7
20260504150929 68 174 1.7 3.5 0.00 0.00 0.00 41 1019.1
20260504150426 66 229 2.6 3.5 0.00 0.00 0.00 41 1019.2
20260504140852 62 209 1.7 2.6 0.00 0.00 0.00 56 1019.1
20260504140348 62 172 0.9 1.7 0.00 0.00 0.00 56 1019.0
20260504130817 56 322 0.9 1.7 0.00 0.00 0.00 67 1019.1
20260504130313 55 215 0.0 2.6 0.00 0.00 0.00 71 1018.8
20260504120237 44 134 0.0 0.0 0.00 0.00 0.00 98 1018.6
20260504110704 38 142 0.0 0.0 0.00 0.00 0.00 99 1018.5
20260504110200 37 136 0.0 0.0 0.00 0.00 0.00 99 1018.6
20260504100125 37 68 0.0 0.0 0.00 0.00 0.00 98 1018.2
20260504081518 39 159 0.0 0.0 0.00 0.00 0.00 97 1018.1
20260504081013 40 171 0.0 0.0 0.00 0.00 0.00 96 1017.9
20260504080510 39 139 0.0 0.0 0.00 0.00 0.00 97 1017.8